Temp
-7 -7 -7 -7 -7 -7 -7 -6 -6 -6 -7 -7 -7 -7 -7 -7 -7 -8 -8 -8 -8 -8 -8 -8 -8 -9 -9 -9 -9 -9 -9 -9 -9 -9 -9 -9 -9 -9 -9 -9 -9 -9 -9
-7 -7 -6 -7 -7 -7 -7 -6 -6 -6 -7 -7 -7 -7 -7 -7 -7 -8 -8 -8 -8 -8 -8 -8 -8 -8 -9 -9 -9 -9 -9 -9 -9 -9 -9 -9 -9 -9 -9 -9 -9 -9 -9
-7 -7 -7 -7 -7 -7 -7 -7 -6 -6 -7 -7 -7 -7 -7 -7 -7 -7 -8 -8 -8 -8 -8 -8 -9 -9 -9 -9 -9 -9 -9 -9 -9 -9 -9 -9 -9 -9 -9 -9 -9 -9 -9
-7 -7 -7 -7 -7 -6 -6 -6 -6 -6 -6 -7 -7 -7 -7 -7 -8 -8 -8 -8 -8 -8 -8 -8 -9 -9 -9 -9 -9 -9 -9 -9 -9 -9 -9 -9 -9 -9 -9 -9 -10 -10 -10
-7 -7 -7 -7 -7 -6 -7 -7 -6 -6 -7 -7 -7 -7 -8 -8 -8 -8 -8 -8 -8 -8 -8 -8 -8 -9 -9 -9 -9 -9 -9 -9 -9 -9 -9 -9 -9 -9 -9 -10 -10 -10 -10
-7 -7 -7 -7 -7 -7 -7 -7 -7 -6 -7 -7 -7 -7 -8 -8 -8 -8 -8 -8 -8 -8 -8 -8 -8 -8 -8 -9 -9 -9 -9 -9 -9 -9 -9 -9 -9 -9 -9 -10 -10 -10 -10
-8 -7 -7 -7 -7 -7 -7 -7 -7 -7 -7 -7 -7 -7 -8 -8 -8 -8 -8 -8 -8 -8 -8 -8 -8 -8 -8 -8 -8 -9 -9 -9 -9 -9 -9 -9 -9 -9 -10 -10 -10 -10 -10
-8 -8 -7 -7 -7 -7 -7 -7 -7 -7 -7 -7 -7 -7 -8 -8 -8 -8 -8 -8 -8 -8 -8 -8 -8 -8 -8 -8 -9 -9 -9 -9 -9 -9 -9 -9 -9 -9 -10 -10 -10 -10 -10
-7 -7 -7 -7 -7 -7 -7 -7 -7 -7 -7 -7 -7 -7 -7 -8 -8 -8 -8 -8 -8 -8 -8 -8 -8 -8 -8 -8 -9 -9 -9 -9 -9 -9 -9 -9 -9 -10 -10 -10 -10 -10 -10
-7 -8 -7 -7 -7 -8 -8 -8 -7 -7 -7 -7 -7 -7 -7 -8 -8 -8 -8 -8 -8 -8 -8 -8 -8 -8 -9 -9 -9 -9 -9 -9 -9 -9 -9 -10 -10 -10 -10 -10 -10 -10 -10
-7 -8 -8 -8 -8 -8 -8 -8 -7 -7 -7 -7 -7 -7 -7 -8 -8 -8 -8 -8 -8 -8 -8 -8 -8 -8 -9 -9 -9 -9 -9 -9 -9 -9 -10 -10 -10 -10 -10 -10 -10 -10 -10
-8 -7 -8 -8 -8 -8 -8 -8 -8 -7 -8 -8 -8 -8 -8 -8 -8 -8 -8 -8 -8 -8 -9 -9 -9 -9 -9 -9 -9 -9 -9 -9 -9 -9 -9 -9 -10 -10 -10 -10 -10 -10 -10
-8 -7 -8 -8 -8 -8 -8 -8 -8 -8 -8 -8 -8 -8 -8 -8 -8 -8 -8 -8 -8 -8 -8 -8 -9 -9 -9 -9 -9 -9 -9 -9 -9 -9 -9 -9 -9 -9 -10 -10 -10 -10 -10
-8 -8 -8 -8 -8 -9 -9 -8 -8 -8 -8 -8 -8 -8 -8 -8 -8 -8 -8 -8 -8 -8 -8 -9 -8 -9 -9 -9 -9 -9 -9 -9 -9 -9 -10 -10 -10 -10 -10 -10 -10 -11 -11
-8 -8 -8 -8 -8 -9 -9 -9 -8 -8 -8 -8 -8 -8 -8 -8 -8 -8 -8 -8 -8 -8 -9 -9 -9 -8 -8 -8 -9 -9 -9 -9 -9 -9 -10 -10 -10 -10 -10 -11 -11 -11 -11
-8 -8 -8 -8 -8 -9 -9 -9 -8 -8 -8 -8 -8 -8 -8 -8 -8 -8 -8 -8 -8 -9 -9 -9 -9 -9 -9 -9 -9 -9 -9 -9 -9 -9 -9 -10 -10 -10 -10 -10 -11 -11 -11
-8 -9 -8 -9 -9 -8 -9 -9 -9 -8 -8 -8 -8 -8 -8 -8 -8 -8 -8 -8 -9 -9 -9 -9 -9 -9 -9 -9 -9 -9 -9 -9 -9 -10 -10 -10 -10 -10 -10 -10 -11 -11 -11
-8 -9 -9 -9 -9 -9 -9 -10 -9 -8 -8 -8 -9 -9 -9 -9 -9 -9 -9 -9 -9 -9 -9 -9 -9 -9 -9 -9 -9 -9 -10 -10 -10 -10 -10 -10 -10 -11 -11 -11 -11 -11 -11
-9 -8 -9 -10 -9 -9 -9 -10 -10 -9 -9 -9 -9 -9 -9 -9 -9 -9 -9 -9 -9 -9 -9 -9 -9 -9 -9 -9 -9 -10 -10 -10 -10 -10 -10 -10 -11 -11 -11 -11 -11 -11 -11
-10 -9 -9 -10 -10 -10 -9 -9 -10 -9 -9 -9 -9 -9 -9 -9 -9 -9 -9 -9 -9 -9 -9 -9 -9 -9 -9 -9 -9 -10 -10 -10 -10 -11 -11 -11 -11 -11 -11 -12 -12 -12 -12
-10 -10 -9 -9 -10 -10 -9 -9 -10 -10 -10 -10 -10 -9 -8 -8 -9 -9 -9 -9 -9 -9 -9 -9 -9 -9 -9 -10 -10 -10 -10 -10 -11 -11 -11 -12 -12 -12 -12 -12 -12 -12 -12
-10 -10 -10 -9 -11 -10 -10 -9 -10 -10 -10 -10 -10 -9 -9 -9 -10 -9 -9 -9 -9 -9 -9 -9 -9 -10 -10 -10 -10 -10 -10 -10 -11 -11 -12 -12 -12 -12 -12 -12 -12 -12 -12
-10 -10 -11 -9 -10 -11 -10 -10 -10 -10 -10 -10 -10 -10 -10 -11 -10 -9 -9 -9 -9 -9 -9 -9 -10 -10 -10 -10 -10 -10 -10 -11 -11 -12 -12 -12 -12 -12 -12 -13 -13 -13 -13
-10 -10 -10 -10 -10 -10 -10 -10 -10 -10 -10 -10 -11 -11 -11 -11 -11 -10 -10 -10 -9 -9 -9 -9 -9 -10 -10 -11 -11 -11 -11 -11 -11 -12 -12 -12 -13 -13 -13 -13 -13 -13 -14
-11 -11 -10 -10 -10 -10 -11 -11 -11 -10 -10 -11 -10 -10 -11 -11 -11 -11 -11 -10 -10 -9 -9 -10 -10 -10 -11 -11 -11 -11 -11 -12 -12 -12 -12 -13 -13 -13 -13 -12 -13 -12 -13
-11 -11 -10 -11 -11 -11 -11 -12 -11 -10 -11 -11 -10 -11 -10 -10 -11 -11 -11 -11 -11 -11 -10 -10 -11 -11 -11 -11 -11 -12 -12 -13 -13 -13 -13 -13 -13 -13 -13 -13 -14 -13 -13
Height
5886 5885 5885 5884 5884 5883 5882 5881 5880 5879 5878 5877 5876 5875 5875 5874 5874 5873 5873 5873 5873 5872 5872 5872 5872 5871 5871 5872 5872 5873 5874 5875 5876 5876 5877 5877 5877 5878 5878 5879 5879 5879 5879
5887 5886 5886 5885 5885 5884 5883 5882 5881 5880 5879 5878 5878 5876 5876 5876 5876 5875 5875 5874 5874 5875 5874 5874 5874 5874 5874 5875 5874 5874 5875 5876 5877 5878 5879 5879 5880 5881 5881 5882 5882 5882 5882
5887 5887 5887 5886 5885 5884 5884 5883 5882 5881 5880 5879 5879 5878 5877 5877 5877 5877 5876 5876 5876 5876 5875 5876 5876 5877 5877 5877 5877 5877 5877 5878 5878 5879 5880 5881 5882 5883 5883 5884 5884 5885 5884
5887 5887 5887 5887 5886 5885 5884 5883 5882 5881 5881 5880 5879 5879 5878 5878 5878 5879 5878 5878 5877 5878 5877 5877 5877 5878 5879 5879 5879 5879 5879 5880 5880 5881 5881 5882 5883 5884 5885 5886 5886 5886 5887
5888 5888 5887 5887 5886 5886 5885 5884 5883 5882 5881 5880 5880 5879 5878 5879 5879 5880 5880 5880 5879 5879 5879 5878 5879 5879 5879 5880 5880 5880 5880 5881 5882 5883 5883 5884 5885 5885 5885 5886 5887 5888 5888
5887 5887 5887 5887 5886 5886 5885 5884 5884 5883 5882 5881 5880 5879 5879 5879 5879 5880 5881 5881 5882 5881 5881 5881 5881 5881 5881 5881 5882 5882 5882 5883 5884 5884 5886 5886 5887 5887 5888 5888 5888 5888 5889
5886 5886 5886 5886 5886 5886 5885 5885 5884 5883 5883 5882 5881 5880 5879 5879 5880 5880 5881 5882 5882 5882 5882 5882 5882 5883 5883 5884 5884 5884 5885 5885 5886 5886 5886 5886 5887 5888 5888 5888 5889 5889 5889
5885 5885 5885 5885 5885 5885 5885 5885 5884 5883 5883 5882 5881 5880 5879 5879 5880 5880 5881 5881 5882 5882 5881 5882 5883 5883 5885 5885 5886 5886 5886 5887 5887 5887 5887 5888 5888 5888 5888 5888 5888 5888 5888
5882 5883 5883 5883 5883 5884 5884 5884 5884 5883 5883 5882 5881 5881 5880 5879 5879 5880 5880 5881 5881 5882 5882 5882 5883 5884 5885 5885 5886 5886 5886 5887 5887 5887 5886 5887 5887 5887 5887 5887 5887 5887 5886
5878 5879 5880 5881 5881 5882 5881 5882 5882 5882 5882 5881 5881 5881 5881 5879 5879 5879 5880 5880 5880 5880 5881 5882 5883 5883 5884 5885 5886 5887 5887 5887 5886 5886 5886 5887 5886 5886 5886 5886 5886 5885 5885
5874 5876 5877 5878 5879 5879 5878 5879 5879 5880 5880 5880 5880 5880 5880 5880 5879 5879 5879 5879 5879 5880 5880 5881 5882 5883 5883 5884 5885 5885 5885 5885 5886 5886 5885 5885 5884 5884 5883 5883 5883 5882 5882
5870 5871 5873 5875 5875 5875 5875 5876 5877 5877 5878 5879 5879 5878 5879 5879 5878 5878 5878 5878 5879 5879 5880 5880 5880 5881 5882 5882 5883 5883 5883 5883 5883 5884 5883 5882 5881 5881 5880 5880 5879 5879 5878
5865 5867 5869 5870 5871 5872 5872 5872 5873 5874 5875 5876 5876 5876 5876 5877 5877 5877 5877 5877 5878 5878 5878 5879 5879 5880 5880 5880 5880 5880 5880 5880 5880 5880 5879 5878 5878 5877 5876 5875 5874 5874 5872
5860 5862 5864 5866 5867 5868 5867 5868 5870 5871 5872 5872 5873 5874 5874 5874 5875 5875 5875 5876 5876 5876 5877 5878 5877 5877 5877 5878 5878 5877 5877 5876 5875 5876 5875 5873 5872 5872 5871 5870 5869 5868 5867
5853 5855 5858 5861 5863 5864 5865 5863 5865 5867 5868 5869 5870 5871 5871 5871 5872 5873 5873 5874 5874 5874 5875 5876 5876 5875 5875 5875 5875 5875 5874 5873 5872 5870 5871 5868 5868 5867 5866 5866 5865 5863 5862
5848 5849 5852 5855 5857 5860 5860 5860 5859 5863 5864 5866 5866 5867 5868 5868 5869 5870 5871 5872 5872 5872 5873 5874 5874 5873 5873 5872 5872 5871 5871 5869 5868 5866 5869 5866 5864 5863 5862 5861 5859 5858 5856
5841 5844 5845 5847 5850 5854 5856 5856 5855 5856 5860 5861 5862 5863 5864 5865 5865 5866 5868 5868 5869 5870 5870 5870 5870 5870 5869 5869 5869 5868 5867 5866 5864 5862 5863 5862 5861 5859 5858 5857 5855 5853 5851
5830 5835 5839 5840 5843 5847 5850 5851 5851 5851 5854 5856 5857 5858 5859 5861 5861 5862 5863 5864 5865 5865 5866 5866 5865 5865 5865 5864 5864 5863 5862 5861 5860 5860 5858 5858 5857 5855 5854 5852 5850 5849 5846
5821 5825 5833 5834 5835 5839 5844 5846 5847 5847 5847 5851 5852 5853 5855 5855 5857 5857 5858 5859 5859 5860 5861 5860 5860 5860 5860 5859 5859 5858 5858 5857 5856 5855 5854 5852 5850 5851 5850 5848 5843 5842 5840
5817 5813 5822 5828 5828 5830 5835 5839 5842 5842 5843 5844 5846 5848 5849 5850 5851 5853 5853 5855 5855 5856 5856 5856 5855 5854 5854 5853 5852 5852 5851 5850 5850 5849 5848 5846 5844 5842 5841 5841 5838 5836 5831
5808 5807 5808 5819 5821 5822 5826 5833 5836 5838 5839 5839 5839 5841 5843 5845 5846 5846 5847 5848 5850 5850 5850 5850 5849 5849 5849 5847 5847 5845 5845 5844 5843 5842 5841 5839 5838 5835 5833 5830 5828 5828 5825
5797 5800 5796 5806 5814 5814 5818 5824 5828 5829 5832 5832 5833 5836 5837 5838 5838 5840 5842 5843 5843 5843 5843 5843 5843 5842 5842 5842 5840 5839 5838 5838 5836 5835 5833 5830 5830 5826 5825 5822 5819 5816 5813
5787 5788 5786 5793 5805 5807 5809 5813 5818 5819 5822 5826 5830 5831 5832 5832 5832 5832 5834 5834 5835 5836 5837 5837 5837 5836 5835 5835 5834 5834 5831 5831 5829 5829 5827 5822 5821 5818 5816 5814 5811 5809 5805
5776 5780 5780 5782 5791 5798 5798 5803 5807 5811 5814 5819 5822 5823 5823 5825 5826 5826 5826 5827 5827 5829 5830 5829 5829 5829 5827 5828 5827 5826 5823 5822 5821 5821 5820 5818 5815 5811 5808 5801 5801 5799 5797
5763 5770 5771 5771 5775 5784 5789 5792 5797 5801 5806 5809 5811 5814 5816 5817 5819 5820 5820 5820 5821 5821 5822 5823 5821 5821 5820 5821 5820 5819 5816 5815 5813 5811 5811 5810 5808 5804 5801 5797 5791 5787 5786
5748 5751 5759 5763 5768 5771 5778 5783 5787 5792 5796 5799 5801 5804 5806 5809 5812 5812 5813 5814 5814 5813 5813 5815 5813 5812 5813 5814 5813 5812 5809 5807 5806 5804 5801 5800 5799 5795 5794 5792 5788 5783 5779
Wind_Speed
4 6 6 6 6 8 11 9 6 8 9 7 7 8 8 9 10 12 13 14 14 14 14 14 14 15 16 16 16 16 17 18 18 18 18 17 17 18 19 20 21 20 19
2 4 6 6 6 7 9 11 8 7 9 9 6 7 7 8 9 9 10 12 13 12 13 13 12 13 14 13 14 14 15 16 17 17 17 18 19 22 21 19 18 18 17
1 3 5 6 8 7 8 9 11 8 7 8 8 6 6 6 7 8 8 9 11 10 11 11 11 11 11 11 12 12 13 15 16 16 17 20 19 17 16 14 14 14 14
4 1 3 5 7 8 8 9 9 10 7 7 7 7 6 6 6 6 7 7 9 8 9 9 9 9 9 9 9 11 12 13 14 15 19 18 17 15 13 12 11 10 9
7 5 2 4 5 7 9 9 9 9 9 6 6 6 6 6 6 5 5 5 6 7 7 7 7 8 8 7 8 11 12 12 14 14 16 14 12 10 10 9 7 6 5
7 6 5 5 5 6 7 9 9 8 7 7 6 5 5 5 5 5 4 4 5 5 5 5 5 6 9 8 9 11 11 13 14 14 12 10 8 6 5 3 2 2 2
5 4 5 6 7 6 6 7 9 9 7 6 7 5 4 4 4 4 4 4 4 4 4 4 4 3 7 10 10 11 12 13 13 10 10 8 6 4 3 2 2 3 5
8 4 6 8 8 7 7 6 8 9 8 7 5 6 5 3 2 2 2 2 3 4 4 5 6 5 5 10 11 12 13 12 11 10 8 6 6 6 6 6 7 8 10
14 11 9 9 10 10 9 8 7 8 9 8 7 5 5 4 2 1 1 1 1 3 3 3 6 7 8 8 13 12 11 10 10 9 9 9 9 10 11 12 12 14 15
18 16 13 12 12 12 12 10 9 8 9 8 8 7 3 3 3 1 1 2 2 3 4 5 5 10 11 11 11 14 13 12 12 12 14 13 14 15 16 17 18 19 21
21 18 15 13 12 14 15 14 11 10 10 9 8 8 8 3 1 2 1 2 3 4 5 6 7 8 11 15 15 16 16 16 16 16 18 17 19 20 21 22 23 25 26
25 22 19 15 14 17 18 16 13 14 12 11 10 9 8 8 4 1 0 2 3 4 6 7 8 9 11 13 15 19 21 22 22 21 23 24 26 26 27 28 30 30 31
29 24 20 19 18 19 21 19 17 16 14 13 12 11 9 9 10 6 4 3 3 4 6 7 9 10 12 13 16 19 21 23 25 26 28 30 31 33 33 33 32 32 31
31 29 24 23 22 21 23 24 20 18 17 15 15 14 12 11 12 12 9 8 7 7 8 8 9 10 11 13 16 19 20 23 25 26 26 29 30 30 31 31 30 30 30
35 33 29 26 23 23 23 26 25 21 19 18 17 17 15 14 14 13 13 12 11 11 11 12 12 12 14 15 16 18 20 22 24 26 24 28 29 29 29 28 28 27 28
38 36 34 31 27 25 25 25 29 23 22 22 21 20 18 17 17 16 15 15 15 14 13 15 15 16 16 18 19 20 21 23 24 27 23 25 27 28 27 27 27 28 29
41 39 38 37 33 28 24 24 29 27 23 24 22 22 22 20 20 19 18 18 17 15 16 17 18 19 20 20 21 22 24 25 27 28 26 25 27 28 28 28 29 30 31
46 43 42 42 39 33 24 24 27 30 27 24 23 22 23 22 22 23 22 20 19 18 18 19 20 21 21 24 24 25 26 28 29 29 31 30 30 30 31 32 33 33 34
49 46 42 45 44 39 30 26 27 30 32 25 25 24 25 24 24 25 23 23 22 22 21 21 22 23 24 26 28 29 31 31 32 32 32 34 34 33 32 32 35 35 35
48 52 46 45 47 47 36 29 29 31 32 32 28 26 26 25 25 25 26 25 24 24 24 26 25 26 27 28 31 31 33 35 36 35 35 35 36 38 36 34 36 36 37
51 54 54 47 49 50 45 31 29 30 31 34 34 32 28 25 24 25 26 26 25 27 28 28 30 31 30 33 33 35 35 36 39 39 39 38 39 39 39 41 40 38 39
55 53 58 52 50 53 50 38 32 31 32 34 35 33 32 30 32 30 28 28 29 29 31 32 33 35 35 36 37 37 38 39 40 41 40 41 39 43 40 43 44 45 44
56 56 58 57 50 53 52 46 37 37 37 36 33 32 32 33 36 37 34 34 34 33 34 36 35 36 37 38 38 38 40 40 43 40 39 42 41 45 47 46 46 45 46
53 54 56 58 54 53 53 48 43 41 40 37 35 35 37 36 38 39 40 40 41 39 38 39 40 37 38 36 37 38 41 39 39 38 37 38 39 44 49 48 48 50 53
66 59 56 58 56 53 49 50 47 45 42 40 39 39 40 39 40 41 42 44 44 44 43 42 43 42 40 35 37 39 41 37 36 37 36 35 36 37 38 41 39 42 39
62 65 60 58 60 56 52 49 51 48 45 43 43 42 43 42 40 41 43 45 46 47 46 44 43 44 40 37 40 38 35 35 35 38 41 40 39 39 32 33 37 40 41
Wind_Direction
43 53 47 38 35 36 33 23 29 43 54 69 81 92 94 100 99 104 106 101 101 96 90 86 85 90 90 91 90 90 93 90 84 87 90 86 84 85 87 85 82 78 76
19 42 47 37 25 28 33 33 26 41 51 60 72 83 92 100 104 101 107 111 108 105 98 91 88 92 92 93 93 95 103 102 98 100 96 93 91 98 96 90 85 89 85
346 9 37 41 31 24 19 24 36 30 46 60 66 76 84 98 109 103 106 116 114 112 101 98 97 96 97 96 99 103 108 112 112 114 110 111 106 103 104 99 96 90 86
283 298 27 37 35 28 25 8 18 35 35 52 63 76 86 88 96 104 103 123 120 122 114 111 106 109 106 104 108 112 113 117 122 121 126 125 121 115 111 103 99 90 82
287 299 336 25 25 21 25 18 4 20 33 43 56 68 80 90 101 106 106 108 131 132 128 123 115 126 126 120 119 120 120 126 127 128 131 130 129 120 115 112 98 82 67
304 295 325 353 3 13 13 16 9 0 20 42 51 57 70 80 96 115 123 117 115 139 145 143 123 133 143 141 140 138 137 143 140 133 147 131 129 123 117 111 85 50 25
328 286 321 329 342 345 3 3 4 2 351 13 49 50 54 70 85 108 130 145 140 131 153 161 146 136 158 160 153 148 150 155 156 147 152 144 149 152 175 234 278 293 306
267 303 307 316 317 331 330 347 351 351 350 340 360 47 51 55 66 97 123 162 177 170 156 177 176 170 175 181 168 162 164 165 173 172 178 183 203 223 237 251 266 278 286
257 267 279 297 307 305 309 317 327 336 338 334 327 351 50 53 58 23 28 279 246 221 204 197 203 197 196 195 202 192 195 201 209 207 229 229 237 245 254 262 268 275 282
252 256 269 280 292 298 293 290 300 312 320 324 317 311 333 55 62 59 298 272 277 272 254 236 229 224 219 219 217 226 234 233 235 240 248 252 260 264 269 273 276 283 288
259 261 264 271 280 286 291 288 278 289 298 305 304 300 292 299 56 52 348 291 284 285 278 272 264 254 245 237 237 241 247 250 253 256 265 265 269 273 277 280 283 286 289
256 258 265 269 274 275 280 284 283 272 279 284 290 288 287 278 265 230 303 326 311 295 282 277 276 275 272 268 262 258 258 261 262 263 266 270 273 276 279 282 284 287 291
252 252 257 265 270 277 279 279 280 273 261 272 278 277 276 277 269 260 244 249 282 295 292 292 288 283 280 278 278 276 275 275 275 273 273 275 276 280 284 288 290 292 295
254 254 254 259 267 276 281 280 278 276 257 258 269 270 266 265 264 257 251 247 251 266 279 286 289 290 290 288 285 288 284 283 284 283 283 282 283 287 290 293 295 297 299
254 259 260 261 265 271 274 278 277 273 261 257 261 265 265 263 263 259 255 252 251 257 266 273 280 283 289 293 294 291 290 288 287 286 285 288 288 289 290 293 295 297 300
251 258 264 264 264 265 270 273 278 273 265 259 258 259 261 260 260 259 256 256 257 260 263 270 272 278 280 285 289 290 292 292 291 291 290 288 290 291 294 295 295 296 300
251 253 259 264 264 262 266 268 272 274 264 262 259 259 261 260 261 260 260 260 262 261 268 270 272 276 280 281 281 286 287 288 288 289 291 288 289 291 293 293 294 296 300
249 250 255 262 265 265 265 264 265 270 268 261 261 259 260 260 263 265 264 264 266 268 266 269 275 279 282 283 284 283 284 286 288 289 291 290 289 290 294 296 296 300 302
249 251 249 258 264 266 262 260 262 265 270 265 262 262 262 262 264 266 268 270 271 271 272 274 275 281 286 287 285 286 290 290 288 289 290 290 291 290 292 293 295 298 299
244 252 251 250 258 262 261 257 257 261 269 274 270 260 260 262 266 270 272 273 276 277 279 281 283 283 283 283 286 288 288 290 292 292 293 294 296 298 297 297 297 298 299
243 246 252 247 253 258 263 257 255 254 260 267 271 273 269 269 270 271 273 278 279 282 281 281 282 285 284 285 287 289 290 291 294 297 298 299 298 298 301 300 297 298 299
244 243 250 249 243 253 259 259 250 246 247 256 262 270 277 280 280 278 278 278 279 278 280 283 284 286 287 287 289 290 293 296 296 297 299 297 299 299 300 299 298 298 298
241 243 247 251 247 248 254 256 247 243 241 246 255 261 266 267 272 279 280 280 279 279 281 283 285 289 291 292 296 299 296 296 295 297 296 298 301 302 301 298 294 296 294
246 243 246 251 249 243 249 252 249 248 245 244 246 249 255 260 267 272 276 278 281 284 285 286 287 286 290 296 298 300 298 297 297 298 298 299 297 298 310 302 291 290 291
244 246 249 252 251 249 242 247 248 248 247 248 247 247 249 255 260 265 268 273 277 279 280 284 285 284 287 292 298 298 297 296 299 300 298 298 297 302 305 313 308 304 301
242 241 237 245 250 252 248 241 250 251 251 252 253 253 250 250 254 259 264 268 271 274 277 279 283 280 280 288 293 293 293 299 300 297 300 305 305 307 306 305 304 305 302